Change the Weather History Date:

Monday, September 24, 2012

  Actual Average Record
Temperature  
Mean Temperature 80 °F -  
Max Temperature 90 °F 84 °F 92 °F (2013)
Min Temperature 71 °F 73 °F 69 °F (2006)
Cooling Degree Days 16    
Growing Degree Days 30 (Base 50)    
Moisture  
Dew Point 71 °F    
Average Humidity 74    
Maximum Humidity 94    
Minimum Humidity 59    
Precipitation  
Precipitation 0.00 in - - ()
Sea Level Pressure  
Sea Level Pressure 29.85 in    
Wind  
Wind Speed 3 mph ()    
Max Wind Speed 13 mph    
Max Gust Speed -    
Visibility 6.3 miles    
Events Fog    
Averages and records for this station are not official NWS values.
T = Trace of Precipitation, MM = Missing Value Source: Averaged Metar Reports

Daily Weather History Graph

Daily Weather History Graph

Search for Another Location

Airport or City:

Trip Planner

Search our weather history database for the weather conditions in past years. The results will help you decide how hot, cold, wet, or windy it might be!

Date:

Astronomy

Sep. 24, 2012 Rise Set
Actual Time 5:31 AM CST 5:36 PM CST
Civil Twilight 5:10 AM CST 5:57 PM CST
Nautical Twilight 4:45 AM CST 6:22 PM CST
Astronomical Twilight 4:21 AM CST 6:46 PM CST
Moon 1:34 PM CST (9/24) 12:39 AM CST (9/24)
Length of Visible Light 12h 47m
Length of Day
12h 05m
Waxing Gibbous, 71% of the Moon is Illuminated
Sep 24
Waxing Gibbous
Sep 29
Full
Oct 8
Last Quarter
Oct 15
New
Oct 21
First Quarter

Hourly Weather History & Observations

Time (CST) Temp. Heat Index Dew Point Humidity Pressure Visibility Wind Dir Wind Speed Gust Speed Precip Events Conditions
6:00 AM 72 °F - 71 °F 94% 29.88 in 3 mi Calm Calm - - Fog Partial Fog
6:00 AM 71.6 °F - 69.8 °F 94% 29.87 in 0.3 mi Calm Calm - N/A Fog Fog
6:10 AM 71.6 °F - 69.8 °F 94% 29.88 in 6.2 mi Calm Calm - N/A   Scattered Clouds
7:00 AM 77.0 °F - 73.4 °F 89% 29.89 in 6.2 mi Calm Calm - N/A   Scattered Clouds
8:00 AM 82.4 °F 88.2 °F 73.4 °F 74% 29.90 in - Calm Calm - N/A   Clear
9:00 AM 84.2 °F 90.9 °F 73.4 °F 70% 29.91 in 6.2 mi West 4.6 mph - N/A   Scattered Clouds
10:00 AM 86.0 °F 93.4 °F 73.4 °F 66% 29.91 in 6.2 mi West 6.9 mph - N/A   Scattered Clouds
11:00 AM 87.8 °F 95.6 °F 73.4 °F 62% 29.88 in 6.2 mi WNW 5.8 mph - N/A   Scattered Clouds
12:00 PM 89.6 °F 98.2 °F 73.4 °F 59% 29.85 in 6.2 mi West 4.6 mph - N/A   Mostly Cloudy
1:00 PM 86.0 °F 93.4 °F 73.4 °F 66% 29.82 in 6.2 mi East 10.4 mph - N/A   Mostly Cloudy
2:00 PM 82.4 °F 86.3 °F 69.8 °F 66% 29.81 in 6.2 mi East 9.2 mph - N/A   Mostly Cloudy
3:00 PM 81 °F - 71 °F 64% 29.81 in 12 mi East 12.7 mph - -   Overcast
3:00 PM 80.6 °F 84.6 °F 71.6 °F 74% 29.79 in 6.2 mi East 12.7 mph - N/A   Mostly Cloudy
4:00 PM 82.4 °F 86.3 °F 69.8 °F 66% 29.79 in 6.2 mi East 8.1 mph - N/A   Mostly Cloudy
5:00 PM 82.4 °F 87.2 °F 71.6 °F 70% 29.80 in 6.2 mi ESE 4.6 mph - N/A   Mostly Cloudy
6:00 PM 80 °F - 69 °F 62% 29.83 in 12 mi East 4.6 mph - -   Overcast
6:00 PM 78.8 °F - 69.8 °F 74% 29.82 in 6.2 mi East 4.6 mph - N/A   Mostly Cloudy
7:00 PM 77.0 °F - 69.8 °F 78% 29.83 in 6.2 mi ESE 5.8 mph - N/A   Mostly Cloudy
8:00 PM 77.0 °F - 69.8 °F 78% 29.85 in 6.2 mi East 6.9 mph - N/A   Mostly Cloudy